Skip Page Navigation
NASA JPL Caltech
NASA Logo - Jet Propulsion Laboratory + View the NASA Portal
+ Center for Near-Earth Object Studies
JPL Home Earth Solar System Stars & Galaxies Technology
JPL Solar System Dynamics
BODIES ORBITS EPHEMERIDES TOOLS PHYSICAL DATA DISCOVERY FAQ SITE MAP
JPL Small-Body Database Browser
Search: [ help ]  
58500 (1996 VU1)
Classification: Main-belt Asteroid          SPK-ID: 2058500
Ephemeris | Orbit Diagram | Orbital Elements | Mission Design | Physical Parameters | Discovery Circumstances ]

[ show orbit diagram ]
Orbital Elements at Epoch 2459200.5 (2020-Dec-17.0) TDB
Reference: JPL 17 (heliocentric ecliptic J2000)
 Element Value Uncertainty (1-sigma)   Units 
e .08455494721060537 7.4235e-08  
a 2.929951628166206 1.905e-08 au
q 2.682209722916985 2.201e-07 au
i 1.265852077090218 6.1216e-06 deg
node 344.6248644557118 0.0002374 deg
peri 23.88602286948614 0.00023879 deg
M 314.0976540754961 2.7619e-05 deg
tp 2459434.072378541717
(2021-Aug-07.57237854)
0.00014182 TDB
period 1831.84659915455
5.02
1.7865e-05
4.891e-08
d
yr
n .1965230058926061 1.9166e-09 deg/d
Q 3.177693533415426 2.0661e-08 au
  Orbit Determination Parameters
   # obs. used (total)      821  
   data-arc span      8274 days (22.65 yr)  
   first obs. used      1996-11-06  
   last obs. used      2019-07-03  
   planetary ephem.      DE431  
   SB-pert. ephem.      SB431-N16  
   condition code      0  
   norm. resid. RMS      .59462  
   source      ORB  
   producer      Otto Matic  
   solution date      2020-Feb-23 12:30:46  

Additional Information
 Earth MOID = 1.67958 au 
 Jupiter MOID = 2.2649 au 
 T_jup = 3.271 
[ hide covariance matrix ]
Orbital Elements at Epoch 2456463.5 (2013-Jun-20.0) TDB
Reference: JPL 17 (heliocentric ecliptic J2000)
 Element Value Uncertainty (1-sigma)   Units 
e .08694556658622062 7.385e-08  
q 2.670906933819925 2.1947e-07 au
tp 2455786.642147689049
(2011-Aug-13.14214769)
0.00012273 TDB
node 344.7888532289691 0.00023778 deg
peri 25.75285631689072 0.0002391 deg
i 1.266006810364107 6.1227e-06 deg
  Orbit Determination Parameters
   # obs. used (total)      821  
   data-arc span      8274 days (22.65 yr)  
   first obs. used      1996-11-06  
   last obs. used      2019-07-03  
   planetary ephem.      DE431  
   SB-pert. ephem.      SB431-N16  
   condition code      0  
   norm. resid. RMS      .59462  
   source      ORB  
   producer      Otto Matic  
   solution date      2020-Feb-23 12:30:46  

Additional Information
 Jupiter MOID = 2.2649 au 
 T_jup = 3.271 
Orbit Covariance (6×6)
  e q tp node peri i
e 5.453894636757653E-15 -1.616333549737663E-14 1.304957236709817E-12 3.230913621145381E-14 5.892837519121956E-14 -7.541479249539711E-16
q -1.616333549737663E-14 4.816926030675405E-14 -3.164221183857115E-12 -9.165490128842177E-14 -1.910923380949769E-14 2.451491439577519E-15
tp 1.304957236709817E-12 -3.164221183857115E-12 1.506280736558387E-8 -5.147346495857982E-12 3.106572810094343E-9 -5.635874515758964E-13
node 3.230913621145381E-14 -9.165490128842177E-14 -5.147346495857982E-12 5.653964633220753E-8 -5.652637921020349E-8 7.757642139292379E-10
peri 5.892837519121956E-14 -1.910923380949769E-14 3.106572810094343E-9 -5.652637921020349E-8 5.717020867334386E-8 -7.756252571916379E-10
i -7.541479249539711E-16 2.451491439577519E-15 -5.635874515758964E-13 7.757642139292379E-10 -7.756252571916379E-10 3.748744319547865E-11

Ephemeris | Orbit Diagram | Orbital Elements | Mission Design | Physical Parameters | Discovery Circumstances ]

Physical Parameter Table
Parameter Symbol Value Units Sigma Reference Notes
absolute magnitude H 15.0   n/a MPO341077  

58500 (1996 VU1)          Discovered 1996-Nov-06 by Vagnozzi, A. at Stroncone
Reference: 20030614/Numbers.arcLast Updated: 2004-04-19

Alternate Designations
 1996 VU1 = 2001 SW155 
Ephemeris | Orbit Diagram | Orbital Elements | Mission Design | Physical Parameters | Discovery Circumstances ]
ABOUT SSD CREDITS/AWARDS PRIVACY/COPYRIGHT GLOSSARY LINKS
FirstGov 2021-Mar-03 03:54 UT
(server date/time)  
NASA Home Page
Site Manager:   Ryan S. Park
Webmaster  Alan B. Chamberlin